Location: Karlsruhe
(49.0131°N, 8.3874°E)
Time: 12:39:09
(UTC+01:00)

ISS - Pass Details

Date: 09 January 2018
Orbit: 402 x 407 km, 51.6° (Epoch: 19 January)

Event Time Altitude Azimuth Distance (km) Brightness Sun altitude
Exits shadow 07:21:29 13° 286° (WNW) 1,309 -1.9 -9.1°
Maximum altitude 07:24:21 63° 206° (SSW) 459 -3.6 -8.6°
Drops below altitude 10° 07:27:36 10° 125° (SE) 1,465 0.6 -8.2°
Sets 07:29:41 0° 122° (ESE) 2,324 2.4 -7.8°
